Year,Month,Day,Hour,Minute,Value (Times are PST for windgust in km/hr)
2017,05,24,00,00,9.60
2017,05,24,00,01,8.10
2017,05,24,00,02,11.30
2017,05,24,00,03,17.70
2017,05,24,00,04,9.60
2017,05,24,00,05,6.40
2017,05,24,00,06,8.10
2017,05,24,00,07,8.10
2017,05,24,00,08,8.10
2017,05,24,00,09,6.40
2017,05,24,00,10,6.40
2017,05,24,00,11,6.40
2017,05,24,00,12,4.80
2017,05,24,00,13,12.90
2017,05,24,00,14,8.10
2017,05,24,00,15,8.10
2017,05,24,00,16,3.20
2017,05,24,00,18,4.80
2017,05,24,00,19,4.80
2017,05,24,00,20,8.10
2017,05,24,00,21,8.10
2017,05,24,00,22,4.80
2017,05,24,00,23,4.80
2017,05,24,00,24,4.80
2017,05,24,00,25,6.40
2017,05,24,00,26,3.20
2017,05,24,00,27,3.20
2017,05,24,00,28,6.40
2017,05,24,00,29,6.40
2017,05,24,00,30,6.40
2017,05,24,00,31,6.40
2017,05,24,00,32,1.60
2017,05,24,00,33,6.40
2017,05,24,00,34,11.30
2017,05,24,00,35,9.60
2017,05,24,00,36,6.40
2017,05,24,00,37,1.60
2017,05,24,00,43,9.60
2017,05,24,00,44,6.40
2017,05,24,00,45,6.40
2017,05,24,00,46,8.10
2017,05,24,00,47,22.50
2017,05,24,00,48,22.50
2017,05,24,00,49,16.10
2017,05,24,00,50,6.40
2017,05,24,00,51,6.40
2017,05,24,00,52,6.40
2017,05,24,00,53,4.80
2017,05,24,00,54,4.80
2017,05,24,00,55,6.40
2017,05,24,00,56,4.80
2017,05,24,00,57,6.40
2017,05,24,00,58,11.30
2017,05,24,00,59,9.60
2017,05,24,01,00,4.80
2017,05,24,01,01,4.80
2017,05,24,01,02,4.80
2017,05,24,01,03,8.10
2017,05,24,01,04,8.10
2017,05,24,01,05,8.10
2017,05,24,01,06,8.10
2017,05,24,01,07,6.40
2017,05,24,01,08,11.30
2017,05,24,01,09,11.30
2017,05,24,01,17,4.80
2017,05,24,01,18,4.80
2017,05,24,01,19,6.40
2017,05,24,01,20,8.10
2017,05,24,01,21,6.40
2017,05,24,01,22,3.20
2017,05,24,01,23,3.20
2017,05,24,01,24,3.20
2017,05,24,01,25,1.60
2017,05,24,01,26,4.80
2017,05,24,01,27,4.80
2017,05,24,01,28,6.40
2017,05,24,01,29,9.60
2017,05,24,01,30,19.30
2017,05,24,01,31,9.60
2017,05,24,01,32,12.90
2017,05,24,01,33,6.40
2017,05,24,01,34,6.40
2017,05,24,01,35,9.60
2017,05,24,01,36,6.40
2017,05,24,01,37,9.60
2017,05,24,01,38,9.60
2017,05,24,01,39,12.90
2017,05,24,01,40,11.30
2017,05,24,01,41,6.40
2017,05,24,01,42,9.60
2017,05,24,01,43,9.60
2017,05,24,01,44,4.80
2017,05,24,01,45,6.40
2017,05,24,01,46,3.20
2017,05,24,01,47,4.80
2017,05,24,01,48,4.80
2017,05,24,01,49,3.20
2017,05,24,01,50,3.20
2017,05,24,01,52,3.20
2017,05,24,01,53,3.20
2017,05,24,01,54,3.20
2017,05,24,01,55,4.80
2017,05,24,01,56,6.40
2017,05,24,01,57,3.20
2017,05,24,01,58,6.40
2017,05,24,01,59,9.60
2017,05,24,02,00,4.80
2017,05,24,02,01,6.40
2017,05,24,02,02,6.40
2017,05,24,02,03,3.20
2017,05,24,02,04,4.80
2017,05,24,02,05,4.80
2017,05,24,02,06,6.40
2017,05,24,02,07,4.80
2017,05,24,02,08,8.10
2017,05,24,02,09,1.60
2017,05,24,02,10,1.60
2017,05,24,02,11,3.20
2017,05,24,02,12,3.20
2017,05,24,02,13,4.80
2017,05,24,02,14,4.80
2017,05,24,02,15,3.20
2017,05,24,02,16,3.20
2017,05,24,02,17,1.60
2017,05,24,02,18,6.40
2017,05,24,02,19,8.10
2017,05,24,02,20,8.10
2017,05,24,02,21,9.60
2017,05,24,02,22,9.60
2017,05,24,02,23,4.80
2017,05,24,02,24,3.20
2017,05,24,02,25,4.80
2017,05,24,02,26,6.40
2017,05,24,02,27,6.40
2017,05,24,02,28,6.40
2017,05,24,02,29,6.40
2017,05,24,02,30,8.10
2017,05,24,02,31,6.40
2017,05,24,02,32,9.60
2017,05,24,02,33,6.40
2017,05,24,02,34,6.40
2017,05,24,02,35,9.60
2017,05,24,02,36,17.70
2017,05,24,02,37,17.70
2017,05,24,02,38,11.30
2017,05,24,02,39,11.30
2017,05,24,02,40,4.80
2017,05,24,02,41,4.80
2017,05,24,02,42,9.60
2017,05,24,02,43,12.90
2017,05,24,02,44,6.40
2017,05,24,02,45,6.40
2017,05,24,02,46,3.20
2017,05,24,02,47,3.20
2017,05,24,02,48,4.80
2017,05,24,02,49,8.10
2017,05,24,02,50,3.20
2017,05,24,02,51,4.80
2017,05,24,02,52,3.20
2017,05,24,02,53,4.80
2017,05,24,02,54,1.60
2017,05,24,02,55,3.20
2017,05,24,02,56,4.80
2017,05,24,02,57,12.90
2017,05,24,02,58,24.20
2017,05,24,02,59,16.10
2017,05,24,03,00,6.40
2017,05,24,03,01,11.30
2017,05,24,03,02,11.30
2017,05,24,03,03,9.60
2017,05,24,03,04,4.80
2017,05,24,03,05,4.80
2017,05,24,03,06,4.80
2017,05,24,03,07,3.20
2017,05,24,03,08,3.20
2017,05,24,03,09,6.40
2017,05,24,03,10,4.80
2017,05,24,03,11,6.40
2017,05,24,03,12,4.80
2017,05,24,03,13,6.40
2017,05,24,03,14,3.20
2017,05,24,03,15,6.40
2017,05,24,03,16,8.10
2017,05,24,03,17,6.40
2017,05,24,03,18,3.20
2017,05,24,03,19,4.80
2017,05,24,03,20,6.40
2017,05,24,03,21,8.10
2017,05,24,03,22,6.40
2017,05,24,03,23,3.20
2017,05,24,03,24,3.20
2017,05,24,03,25,4.80
2017,05,24,03,26,4.80
2017,05,24,03,27,8.10
2017,05,24,03,28,6.40
2017,05,24,03,29,9.60
2017,05,24,03,30,6.40
2017,05,24,03,31,4.80
2017,05,24,03,32,3.20
2017,05,24,03,33,1.60
2017,05,24,03,35,3.20
2017,05,24,03,36,8.10
2017,05,24,03,37,3.20
2017,05,24,03,38,3.20
2017,05,24,03,39,6.40
2017,05,24,03,40,3.20
2017,05,24,03,41,3.20
2017,05,24,03,42,3.20
2017,05,24,03,43,4.80
2017,05,24,03,44,4.80
2017,05,24,03,45,3.20
2017,05,24,03,46,1.60
2017,05,24,03,47,1.60
2017,05,24,03,48,3.20
2017,05,24,03,49,1.60
2017,05,24,03,50,1.60
2017,05,24,03,51,3.20
2017,05,24,03,52,4.80
2017,05,24,03,53,6.40
2017,05,24,03,54,6.40
2017,05,24,03,55,6.40
2017,05,24,03,56,6.40
2017,05,24,03,57,6.40
2017,05,24,03,58,4.80
2017,05,24,03,59,3.20
2017,05,24,04,05,4.80
2017,05,24,04,06,4.80
2017,05,24,04,07,11.30
2017,05,24,04,08,11.30
2017,05,24,04,09,9.60
2017,05,24,04,10,11.30
2017,05,24,04,11,12.90
2017,05,24,04,12,4.80
2017,05,24,04,13,6.40
2017,05,24,04,14,6.40
2017,05,24,04,15,4.80
2017,05,24,04,16,6.40
2017,05,24,04,17,4.80
2017,05,24,04,18,16.10
2017,05,24,04,19,6.40
2017,05,24,04,20,11.30
2017,05,24,04,21,8.10
2017,05,24,04,22,14.50
2017,05,24,04,23,17.70
2017,05,24,04,24,27.40
2017,05,24,04,25,20.90
2017,05,24,04,26,24.20
2017,05,24,04,27,11.30
2017,05,24,04,28,30.60
2017,05,24,04,29,25.70
2017,05,24,04,30,12.90
2017,05,24,04,31,17.70
2017,05,24,04,32,20.90
2017,05,24,04,33,11.30
2017,05,24,04,34,64.40
2017,05,24,04,35,32.20
2017,05,24,04,36,17.70
2017,05,24,04,37,29.00
2017,05,24,04,38,35.40
2017,05,24,04,39,30.60
2017,05,24,04,40,24.20
2017,05,24,04,41,41.80
2017,05,24,04,42,12.90
2017,05,24,04,43,29.00
2017,05,24,04,44,24.20
2017,05,24,04,45,29.00
2017,05,24,04,46,22.50
2017,05,24,04,47,16.10
2017,05,24,04,48,22.50
2017,05,24,04,49,22.50
2017,05,24,04,50,24.20
2017,05,24,04,51,14.50
2017,05,24,04,52,32.20
2017,05,24,04,53,24.20
2017,05,24,04,54,32.20
2017,05,24,04,55,19.30
2017,05,24,04,56,9.60
2017,05,24,04,57,14.50
2017,05,24,04,58,14.50
2017,05,24,04,59,25.70
2017,05,24,05,00,37.00
2017,05,24,05,01,25.70
2017,05,24,05,02,19.30
2017,05,24,05,03,12.90
2017,05,24,05,04,22.50
2017,05,24,05,05,16.10
2017,05,24,05,06,6.40
2017,05,24,05,07,6.40
2017,05,24,05,08,9.60
2017,05,24,05,09,8.10
2017,05,24,05,10,6.40
2017,05,24,05,11,11.30
2017,05,24,05,12,12.90
2017,05,24,05,13,11.30
2017,05,24,05,14,9.60
2017,05,24,05,15,19.30
2017,05,24,05,16,16.10
2017,05,24,05,17,12.90
2017,05,24,05,18,12.90
2017,05,24,05,19,14.50
2017,05,24,05,20,8.10
2017,05,24,05,21,8.10
2017,05,24,05,22,12.90
2017,05,24,05,23,19.30
2017,05,24,05,24,16.10
2017,05,24,05,25,11.30
2017,05,24,05,26,16.10
2017,05,24,05,27,16.10
2017,05,24,05,28,16.10
2017,05,24,05,29,8.10
2017,05,24,05,30,16.10
2017,05,24,05,31,19.30
2017,05,24,05,32,17.70
2017,05,24,05,33,17.70
2017,05,24,05,34,12.90
2017,05,24,05,35,11.30
2017,05,24,05,36,12.90
2017,05,24,05,37,25.70
2017,05,24,05,38,16.10
2017,05,24,05,39,11.30
2017,05,24,05,40,24.20
2017,05,24,05,41,25.70
2017,05,24,05,42,14.50
2017,05,24,05,43,32.20
2017,05,24,05,44,17.70
2017,05,24,05,45,20.90
2017,05,24,05,46,22.50
2017,05,24,05,47,20.90
2017,05,24,05,48,25.70
2017,05,24,05,49,17.70
2017,05,24,05,50,17.70
2017,05,24,05,51,12.90
2017,05,24,05,52,8.10
2017,05,24,05,53,6.40
2017,05,24,05,54,4.80
2017,05,24,05,55,17.70
2017,05,24,05,56,14.50
2017,05,24,05,57,14.50
2017,05,24,05,58,12.90
2017,05,24,05,59,9.60
2017,05,24,06,00,12.90
2017,05,24,06,01,6.40
2017,05,24,06,02,6.40
2017,05,24,06,03,6.40
2017,05,24,06,04,19.30
2017,05,24,06,05,14.50
2017,05,24,06,06,11.30
2017,05,24,06,07,4.80
2017,05,24,06,08,12.90
2017,05,24,06,09,32.20
2017,05,24,06,10,12.90
2017,05,24,06,11,11.30
2017,05,24,06,12,16.10
2017,05,24,06,13,17.70
2017,05,24,06,14,19.30
2017,05,24,06,15,29.00
2017,05,24,06,16,24.20
2017,05,24,06,17,16.10
2017,05,24,06,18,16.10
2017,05,24,06,19,19.30
2017,05,24,06,20,17.70
2017,05,24,06,21,12.90
2017,05,24,06,22,14.50
2017,05,24,06,23,14.50
2017,05,24,06,24,12.90
2017,05,24,06,25,14.50
2017,05,24,06,26,27.40
2017,05,24,06,27,22.50
2017,05,24,06,28,11.30
2017,05,24,06,29,11.30
2017,05,24,06,30,9.60
2017,05,24,06,31,35.40
2017,05,24,06,32,12.90
2017,05,24,06,33,25.70
2017,05,24,06,34,20.90
2017,05,24,06,35,11.30
2017,05,24,06,36,24.20
2017,05,24,06,38,9.60
2017,05,24,06,39,25.70
2017,05,24,06,40,35.40
2017,05,24,06,41,20.90
2017,05,24,06,42,45.10
2017,05,24,06,43,43.50
2017,05,24,06,44,16.10
2017,05,24,06,45,25.70
2017,05,24,06,46,25.70
2017,05,24,06,47,20.90
2017,05,24,06,48,16.10
2017,05,24,06,49,24.20
2017,05,24,06,50,24.20
2017,05,24,06,51,37.00
2017,05,24,06,52,24.20
2017,05,24,06,53,14.50
2017,05,24,06,54,9.60
2017,05,24,06,55,25.70
2017,05,24,06,56,33.80
2017,05,24,06,57,19.30
2017,05,24,06,58,20.90
2017,05,24,06,59,14.50
2017,05,24,07,00,19.30
2017,05,24,07,01,11.30
2017,05,24,07,02,19.30
2017,05,24,07,03,12.90
2017,05,24,07,04,20.90
2017,05,24,07,05,32.20
2017,05,24,07,06,29.00
2017,05,24,07,07,20.90
2017,05,24,07,08,11.30
2017,05,24,07,09,20.90
2017,05,24,07,10,25.70
2017,05,24,07,11,32.20
2017,05,24,07,12,22.50
2017,05,24,07,13,17.70
2017,05,24,07,14,20.90
2017,05,24,07,15,24.20
2017,05,24,07,16,27.40
2017,05,24,07,17,32.20
2017,05,24,07,18,20.90
2017,05,24,07,19,29.00
2017,05,24,07,20,35.40
2017,05,24,07,21,37.00
2017,05,24,11,46,6.40
2017,05,24,11,47,12.90
2017,05,24,11,48,19.30
2017,05,24,11,49,19.30
2017,05,24,11,50,16.10
2017,05,24,11,51,17.70
2017,05,24,11,52,19.30
2017,05,24,11,53,16.10
2017,05,24,11,54,22.50
2017,05,24,11,55,22.50
2017,05,24,11,56,11.30
2017,05,24,11,57,29.00
2017,05,24,11,58,24.20
2017,05,24,11,59,20.90
2017,05,24,12,00,14.50
2017,05,24,12,01,14.50
2017,05,24,12,02,16.10
2017,05,24,12,03,11.30
2017,05,24,12,04,9.60
2017,05,24,12,05,9.60
2017,05,24,12,06,9.60
2017,05,24,12,07,32.20
2017,05,24,12,08,17.70
2017,05,24,12,09,24.20
2017,05,24,12,10,17.70
2017,05,24,12,11,17.70
2017,05,24,12,12,17.70
2017,05,24,12,13,9.60
2017,05,24,12,14,24.20
2017,05,24,12,15,4.80
2017,05,24,12,16,16.10
2017,05,24,12,17,16.10
2017,05,24,12,18,14.50
2017,05,24,12,19,9.60
2017,05,24,12,20,8.10
2017,05,24,12,21,8.10
2017,05,24,12,22,9.60
2017,05,24,12,23,6.40
2017,05,24,12,24,9.60
2017,05,24,12,25,12.90
2017,05,24,12,26,16.10
2017,05,24,12,27,12.90
2017,05,24,12,28,9.60
2017,05,24,12,29,6.40
2017,05,24,12,30,6.40
2017,05,24,12,31,4.80
2017,05,24,12,32,6.40
2017,05,24,12,33,8.10
2017,05,24,12,34,11.30
2017,05,24,12,35,12.90
2017,05,24,12,36,19.30
2017,05,24,12,37,9.60
2017,05,24,12,38,16.10
2017,05,24,12,39,14.50
2017,05,24,12,40,12.90
2017,05,24,12,41,14.50
2017,05,24,12,42,14.50
2017,05,24,12,43,20.90
2017,05,24,12,44,6.40
2017,05,24,12,45,12.90
2017,05,24,12,46,11.30
2017,05,24,12,47,12.90
2017,05,24,12,48,12.90
2017,05,24,12,49,9.60
2017,05,24,12,50,6.40
2017,05,24,12,51,14.50
2017,05,24,12,52,6.40
2017,05,24,12,53,9.60
2017,05,24,12,54,9.60
2017,05,24,12,55,12.90
2017,05,24,12,56,11.30
2017,05,24,12,57,4.80
2017,05,24,12,58,4.80
2017,05,24,12,59,16.10
2017,05,24,13,00,19.30
2017,05,24,13,01,12.90
2017,05,24,13,02,12.90
2017,05,24,13,03,16.10
2017,05,24,13,04,14.50
2017,05,24,13,05,12.90
2017,05,24,13,06,12.90
2017,05,24,13,07,17.70
2017,05,24,13,08,11.30
2017,05,24,13,09,6.40
2017,05,24,13,10,12.90
2017,05,24,13,11,9.60
2017,05,24,13,12,16.10
2017,05,24,13,13,14.50
2017,05,24,13,14,17.70
2017,05,24,13,15,9.60
2017,05,24,13,16,17.70
2017,05,24,13,17,17.70
2017,05,24,13,18,17.70
2017,05,24,13,19,9.60
2017,05,24,13,20,16.10
2017,05,24,13,21,16.10
2017,05,24,13,22,9.60
2017,05,24,13,23,9.60
2017,05,24,13,24,16.10
2017,05,24,13,25,16.10
2017,05,24,13,26,16.10
2017,05,24,13,27,8.10
2017,05,24,13,28,14.50
2017,05,24,13,29,11.30
2017,05,24,13,30,19.30
2017,05,24,13,31,9.60
2017,05,24,13,32,16.10
2017,05,24,13,33,12.90
2017,05,24,13,34,11.30
2017,05,24,13,35,9.60
2017,05,24,13,36,14.50
2017,05,24,13,37,16.10
2017,05,24,13,38,17.70
2017,05,24,13,39,4.80
2017,05,24,13,40,17.70
2017,05,24,13,41,16.10
2017,05,24,13,42,32.20
2017,05,24,13,43,32.20
2017,05,24,13,44,27.40
2017,05,24,13,45,27.40
2017,05,24,13,46,16.10
2017,05,24,13,47,30.60
2017,05,24,13,48,24.20
2017,05,24,13,49,19.30
2017,05,24,13,50,11.30
2017,05,24,13,51,14.50
2017,05,24,13,52,6.40
2017,05,24,13,53,16.10
2017,05,24,13,54,14.50
2017,05,24,13,55,17.70
2017,05,24,13,56,17.70
2017,05,24,13,57,9.60
2017,05,24,13,58,27.40
2017,05,24,13,59,16.10
2017,05,24,14,00,16.10
2017,05,24,14,01,9.60
2017,05,24,14,02,14.50
2017,05,24,14,03,16.10
2017,05,24,14,04,22.50
2017,05,24,14,05,17.70
2017,05,24,14,06,12.90
2017,05,24,14,07,22.50
2017,05,24,14,08,25.70
2017,05,24,14,09,19.30
2017,05,24,14,10,14.50
2017,05,24,14,11,14.50
2017,05,24,14,12,12.90
2017,05,24,14,13,12.90
2017,05,24,14,14,12.90
2017,05,24,14,15,8.10
2017,05,24,14,16,16.10
2017,05,24,14,17,16.10
2017,05,24,14,18,12.90
2017,05,24,14,19,11.30
2017,05,24,14,20,11.30
2017,05,24,14,21,12.90
2017,05,24,14,22,9.60
2017,05,24,14,23,12.90
2017,05,24,14,24,17.70
2017,05,24,14,25,16.10
2017,05,24,14,26,11.30
2017,05,24,14,27,20.90
2017,05,24,14,28,12.90
2017,05,24,14,29,14.50
2017,05,24,14,30,14.50
2017,05,24,14,31,17.70
2017,05,24,14,32,12.90
2017,05,24,14,33,8.10
2017,05,24,14,34,8.10
2017,05,24,14,35,9.60
2017,05,24,14,36,9.60
2017,05,24,14,37,17.70
2017,05,24,14,38,12.90
2017,05,24,14,39,19.30
2017,05,24,14,40,19.30
2017,05,24,14,41,12.90
2017,05,24,14,42,19.30
2017,05,24,14,43,16.10
2017,05,24,14,44,22.50
2017,05,24,14,45,20.90
2017,05,24,14,46,20.90
2017,05,24,14,47,19.30
2017,05,24,14,48,17.70
2017,05,24,14,49,12.90
2017,05,24,14,50,14.50
2017,05,24,14,51,12.90
2017,05,24,14,52,9.60
2017,05,24,14,53,6.40
2017,05,24,14,54,17.70
2017,05,24,14,55,20.90
2017,05,24,14,56,12.90
2017,05,24,14,57,17.70
2017,05,24,14,58,20.90
2017,05,24,14,59,14.50
2017,05,24,15,00,11.30
2017,05,24,15,01,11.30
2017,05,24,15,02,11.30
2017,05,24,15,03,17.70
2017,05,24,15,04,14.50
2017,05,24,15,05,14.50
2017,05,24,15,06,11.30
2017,05,24,15,07,19.30
2017,05,24,15,08,12.90
2017,05,24,15,09,11.30
2017,05,24,15,10,17.70
2017,05,24,15,11,19.30
2017,05,24,15,12,20.90
2017,05,24,15,13,24.20
2017,05,24,15,14,16.10
2017,05,24,15,15,16.10
2017,05,24,15,16,19.30
2017,05,24,15,17,16.10
2017,05,24,15,18,20.90
2017,05,24,15,19,20.90
2017,05,24,15,20,16.10
2017,05,24,15,21,17.70
2017,05,24,15,22,12.90
2017,05,24,15,23,17.70
2017,05,24,15,24,19.30
2017,05,24,15,25,20.90
2017,05,24,15,26,16.10
2017,05,24,15,27,9.60
2017,05,24,15,28,12.90
2017,05,24,15,29,17.70
2017,05,24,15,30,12.90
2017,05,24,15,31,14.50
2017,05,24,15,32,6.40
2017,05,24,15,33,8.10
2017,05,24,15,34,19.30
2017,05,24,15,35,17.70
2017,05,24,15,36,17.70
2017,05,24,15,37,17.70
2017,05,24,15,38,19.30
2017,05,24,15,39,16.10
2017,05,24,15,40,22.50
2017,05,24,15,41,25.70
2017,05,24,15,42,20.90
2017,05,24,15,43,14.50
2017,05,24,15,44,12.90
2017,05,24,15,45,19.30
2017,05,24,15,46,16.10
2017,05,24,15,47,16.10
2017,05,24,15,48,12.90
2017,05,24,15,49,16.10
2017,05,24,15,50,19.30
2017,05,24,15,51,20.90
2017,05,24,15,52,14.50
2017,05,24,15,53,12.90
2017,05,24,15,54,19.30
2017,05,24,15,55,16.10
2017,05,24,15,56,16.10
2017,05,24,15,57,9.60
2017,05,24,15,58,14.50
2017,05,24,15,59,12.90
2017,05,24,16,00,20.90
2017,05,24,16,01,17.70
2017,05,24,16,02,12.90
2017,05,24,16,03,16.10
2017,05,24,16,04,16.10
2017,05,24,16,05,17.70
2017,05,24,16,06,17.70
2017,05,24,16,07,16.10
2017,05,24,16,08,19.30
2017,05,24,16,09,9.60
2017,05,24,16,10,14.50
2017,05,24,16,11,12.90
2017,05,24,16,12,17.70
2017,05,24,16,13,22.50
2017,05,24,16,14,19.30
2017,05,24,16,15,17.70
2017,05,24,16,16,19.30
2017,05,24,16,17,16.10
2017,05,24,16,18,19.30
2017,05,24,16,19,22.50
2017,05,24,16,20,12.90
2017,05,24,16,21,22.50
2017,05,24,16,22,19.30
2017,05,24,16,23,12.90
2017,05,24,16,24,12.90
2017,05,24,16,25,12.90
2017,05,24,16,26,14.50
2017,05,24,16,27,17.70
2017,05,24,16,28,12.90
2017,05,24,16,29,12.90
2017,05,24,16,30,19.30
2017,05,24,16,31,11.30
2017,05,24,16,32,6.40
2017,05,24,16,33,9.60
2017,05,24,16,34,9.60
2017,05,24,16,35,12.90
2017,05,24,16,36,8.10
2017,05,24,16,37,4.80
2017,05,24,16,38,22.50
2017,05,24,16,39,14.50
2017,05,24,16,40,12.90
2017,05,24,16,41,14.50
2017,05,24,16,42,12.90
2017,05,24,16,43,12.90
2017,05,24,16,44,14.50
2017,05,24,16,45,16.10
2017,05,24,16,46,17.70
2017,05,24,16,47,6.40
2017,05,24,16,48,6.40
2017,05,24,16,49,4.80
2017,05,24,16,50,11.30
2017,05,24,16,51,12.90
2017,05,24,16,52,14.50
2017,05,24,16,53,16.10
2017,05,24,16,54,12.90
2017,05,24,16,55,12.90
2017,05,24,16,56,12.90
2017,05,24,16,57,6.40
2017,05,24,16,58,6.40
2017,05,24,16,59,4.80
2017,05,24,17,00,9.60
2017,05,24,17,01,12.90
2017,05,24,17,02,9.60
2017,05,24,17,03,6.40
2017,05,24,17,04,9.60
2017,05,24,17,05,11.30
2017,05,24,17,06,3.20
2017,05,24,17,07,6.40
2017,05,24,17,08,12.90
2017,05,24,17,09,9.60
2017,05,24,17,10,20.90
2017,05,24,17,11,12.90
2017,05,24,17,12,17.70
2017,05,24,17,13,17.70
2017,05,24,17,14,19.30
2017,05,24,17,15,12.90
2017,05,24,17,16,12.90
2017,05,24,17,17,9.60
2017,05,24,17,18,12.90
2017,05,24,17,19,6.40
2017,05,24,17,20,14.50
2017,05,24,17,21,6.40
2017,05,24,17,22,4.80
2017,05,24,17,23,11.30
2017,05,24,17,24,6.40
2017,05,24,17,25,6.40
2017,05,24,17,26,4.80
2017,05,24,17,27,8.10
2017,05,24,17,28,8.10
2017,05,24,17,29,9.60
2017,05,24,17,30,24.20
2017,05,24,17,31,11.30
2017,05,24,17,32,12.90
2017,05,24,17,33,6.40
2017,05,24,17,34,8.10
2017,05,24,17,35,16.10
2017,05,24,17,36,9.60
2017,05,24,17,37,12.90
2017,05,24,17,38,14.50
2017,05,24,17,39,16.10
2017,05,24,17,40,14.50
2017,05,24,17,41,6.40
2017,05,24,17,42,12.90
2017,05,24,17,43,16.10
2017,05,24,17,44,3.20
2017,05,24,17,45,3.20
2017,05,24,17,46,6.40
2017,05,24,17,47,4.80
2017,05,24,17,48,12.90
2017,05,24,17,49,11.30
2017,05,24,17,50,8.10
2017,05,24,17,51,9.60
2017,05,24,17,52,6.40
2017,05,24,17,53,6.40
2017,05,24,17,54,8.10
2017,05,24,17,55,6.40
2017,05,24,17,56,9.60
2017,05,24,17,57,9.60
2017,05,24,17,58,6.40
2017,05,24,17,59,4.80
2017,05,24,18,00,12.90
2017,05,24,18,01,9.60
2017,05,24,18,02,14.50
2017,05,24,18,03,14.50
2017,05,24,18,04,6.40
2017,05,24,18,05,14.50
2017,05,24,18,06,8.10
2017,05,24,18,07,14.50
2017,05,24,18,08,16.10
2017,05,24,18,09,14.50
2017,05,24,18,10,16.10
2017,05,24,18,11,9.60
2017,05,24,18,12,11.30
2017,05,24,18,13,4.80
2017,05,24,18,14,12.90
2017,05,24,18,15,17.70
2017,05,24,18,16,9.60
2017,05,24,18,17,11.30
2017,05,24,18,18,11.30
2017,05,24,18,19,12.90
2017,05,24,18,20,6.40
2017,05,24,18,21,14.50
2017,05,24,18,22,16.10
2017,05,24,18,23,11.30
2017,05,24,18,24,19.30
2017,05,24,18,25,12.90
2017,05,24,18,26,8.10
2017,05,24,18,27,9.60
2017,05,24,18,28,12.90
2017,05,24,18,29,9.60
2017,05,24,18,30,12.90
2017,05,24,18,31,12.90
2017,05,24,18,32,8.10
2017,05,24,18,33,12.90
2017,05,24,18,34,16.10
2017,05,24,18,35,17.70
2017,05,24,18,36,22.50
2017,05,24,18,37,17.70
2017,05,24,18,38,12.90
2017,05,24,18,39,16.10
2017,05,24,18,40,8.10
2017,05,24,18,41,8.10
2017,05,24,18,42,4.80
2017,05,24,18,43,12.90
2017,05,24,18,44,9.60
2017,05,24,18,45,6.40
2017,05,24,18,46,8.10
2017,05,24,18,47,6.40
2017,05,24,18,48,9.60
2017,05,24,18,49,14.50
2017,05,24,18,50,11.30
2017,05,24,18,51,6.40
2017,05,24,18,52,3.20
2017,05,24,18,53,3.20
2017,05,24,18,54,6.40
2017,05,24,18,55,9.60
2017,05,24,18,56,4.80
2017,05,24,18,57,4.80
2017,05,24,18,58,3.20
2017,05,24,18,59,8.10
2017,05,24,19,00,12.90
2017,05,24,19,01,12.90
2017,05,24,19,02,16.10
2017,05,24,19,03,6.40
2017,05,24,19,04,4.80
2017,05,24,19,05,9.60
2017,05,24,19,06,8.10
2017,05,24,19,07,6.40
2017,05,24,19,08,8.10
2017,05,24,19,09,8.10
2017,05,24,19,10,11.30
2017,05,24,19,11,9.60
2017,05,24,19,12,9.60
2017,05,24,19,13,6.40
2017,05,24,19,14,6.40
2017,05,24,19,15,6.40
2017,05,24,19,16,3.20
2017,05,24,19,17,3.20
2017,05,24,19,18,3.20
2017,05,24,19,19,3.20
2017,05,24,19,20,3.20
2017,05,24,19,21,1.60
2017,05,24,20,37,4.80
2017,05,24,20,38,1.60
2017,05,24,20,39,6.40
2017,05,24,20,40,3.20
2017,05,24,20,41,3.20
2017,05,24,20,42,1.60
2017,05,24,20,43,1.60
2017,05,24,20,44,3.20
2017,05,24,20,45,3.20
2017,05,24,20,48,3.20
2017,05,24,20,49,3.20
2017,05,24,20,50,1.60
2017,05,24,20,51,1.60
2017,05,24,22,41,6.40
2017,05,24,22,42,6.40
2017,05,24,22,43,3.20
2017,05,24,22,44,3.20
2017,05,24,22,48,1.60
2017,05,24,22,49,1.60
2017,05,24,23,11,6.40
2017,05,24,23,12,8.10
2017,05,24,23,13,6.40
2017,05,24,23,14,6.40
2017,05,24,23,15,3.20
2017,05,24,23,16,3.20
2017,05,24,23,17,1.60
2017,05,24,23,28,1.60
2017,05,24,23,29,3.20
2017,05,24,23,30,1.60
2017,05,24,23,31,1.60
2017,05,24,23,32,3.20
2017,05,24,23,33,4.80
2017,05,24,23,34,6.40
2017,05,24,23,35,6.40
2017,05,24,23,36,4.80
2017,05,24,23,37,3.20
2017,05,24,23,38,3.20
2017,05,24,23,39,3.20
2017,05,24,23,40,3.20
2017,05,24,23,41,3.20
2017,05,24,23,42,3.20
2017,05,24,23,43,3.20
2017,05,24,23,44,1.60
2017,05,24,23,49,4.80
2017,05,24,23,50,4.80
2017,05,24,23,51,4.80
2017,05,24,23,52,4.80
2017,05,24,23,53,4.80
2017,05,24,23,54,1.60
2017,05,24,23,55,3.20
2017,05,24,23,56,3.20
2017,05,24,23,57,3.20
2017,05,24,23,58,3.20
2017,05,24,23,59,3.20
